Weather History for PAIN - September, 2013

Change the Weather History Date:

Wednesday, September 25, 2013

  Actual Average Record
Temperature  
Mean Temperature 40 °F -  
Max Temperature 44 °F 45 °F 63 °F (1966)
Min Temperature 37 °F 26 °F -5 °F (1992)
Degree Days  
Heating Degree Days 24    
Moisture  
Dew Point 37 °F    
Average Humidity 84    
Maximum Humidity 100    
Minimum Humidity 53    
Precipitation  
Precipitation 0.00 in - - ()
Sea Level Pressure  
Sea Level Pressure 29.52 in    
Wind  
Wind Speed 7 mph (SSW)    
Max Wind Speed 18 mph    
Max Gust Speed 29 mph    
Visibility 10 miles    
Events      
Averages and records for this station are not official NWS values.
T = Trace of Precipitation, MM = Missing Value Source: NWS Daily Summary

Daily Weather History Graph

Daily Weather History Graph

Search for Another Location

Airport or City:

Trip Planner

Search our weather history database for the weather conditions in past years. The results will help you decide how hot, cold, wet, or windy it might be!

Date:

Astronomy

Sep. 25, 2013 Rise Set
Actual Time 7:48 AM AKDT 7:44 PM AKDT
Civil Twilight 7:01 AM AKDT 8:30 PM AKDT
Nautical Twilight 6:04 AM AKDT 9:27 PM AKDT
Astronomical Twilight 5:01 AM AKDT 10:29 PM AKDT
Moon 10:04 PM AKDT (9/25) 3:58 PM AKDT (9/25)
Length of Visible Light 13h 29m
Length of Day
11h 55m
Waning Gibbous, 62% of the Moon is Illuminated
Sep 25
Waning Gibbous
Sep 26
Last Quarter
Oct 4
New
Oct 11
First Quarter
Oct 18
Full

Hourly Weather History & Observations

Time (AKDT) Temp. Windchill Dew Point Humidity Pressure Visibility Wind Dir Wind Speed Gust Speed Precip Events Conditions
12:16 AM 42.8 °F 40.1 °F 26.6 °F 53% 29.73 in 10.0 mi SSE 4.6 mph 18.4 mph N/A   Overcast
12:36 AM 42.8 °F 38.6 °F 26.6 °F 53% 29.72 in 10.0 mi South 6.9 mph - N/A   Overcast
12:56 AM 42.8 °F 38.0 °F 26.6 °F 53% 29.72 in 10.0 mi South 8.1 mph - N/A   Overcast
1:16 AM 42.8 °F 38.0 °F 26.6 °F 53% 29.71 in 10.0 mi South 8.1 mph 17.3 mph N/A   Overcast
1:36 AM 42.8 °F 38.0 °F 28.4 °F 57% 29.70 in 10.0 mi South 8.1 mph 19.6 mph N/A   Overcast
1:56 AM 42.8 °F 38.0 °F 28.4 °F 57% 29.69 in 10.0 mi South 8.1 mph - N/A   Mostly Cloudy
2:16 AM 44.6 °F 38.4 °F 28.4 °F 53% 29.68 in 10.0 mi South 12.7 mph 27.6 mph N/A   Mostly Cloudy
2:36 AM 44.6 °F 39.7 °F 28.4 °F 53% 29.67 in 10.0 mi South 9.2 mph 20.7 mph N/A   Overcast
2:56 AM 42.8 °F 37.0 °F 28.4 °F 57% 29.65 in 10.0 mi South 10.4 mph 18.4 mph N/A   Overcast
3:16 AM 42.8 °F 37.0 °F 32.0 °F 66% 29.64 in 10.0 mi South 10.4 mph 23.0 mph N/A   Overcast
3:36 AM 42.8 °F 35.8 °F 33.8 °F 70% 29.62 in 10.0 mi South 13.8 mph 23.0 mph N/A   Overcast
3:56 AM 42.8 °F 34.8 °F 35.6 °F 76% 29.61 in 10.0 mi SSW 17.3 mph 28.8 mph N/A   Overcast
4:16 AM 42.8 °F 34.5 °F 35.6 °F 76% 29.61 in 10.0 mi SSW 18.4 mph 28.8 mph N/A   Overcast
4:36 AM 41.0 °F 34.3 °F 37.4 °F 87% 29.60 in 10.0 mi South 11.5 mph 21.9 mph N/A   Overcast
4:56 AM 41.0 °F 35.2 °F 37.4 °F 87% 29.59 in 10.0 mi South 9.2 mph 24.2 mph N/A   Overcast
5:16 AM 42.8 °F 38.6 °F 37.4 °F 81% 29.58 in 10.0 mi South 6.9 mph - N/A   Overcast
5:36 AM 42.8 °F 38.0 °F 35.6 °F 76% 29.56 in 10.0 mi SSW 8.1 mph - N/A   Overcast
5:56 AM 42.8 °F 38.6 °F 35.6 °F 76% 29.55 in 10.0 mi SSW 6.9 mph - N/A   Overcast
6:16 AM 42.8 °F 37.0 °F 35.6 °F 76% 29.53 in 10.0 mi SSW 10.4 mph - N/A   Overcast
6:36 AM 42.8 °F 36.2 °F 35.6 °F 76% 29.52 in 10.0 mi SSW 12.7 mph 16.1 mph N/A   Overcast
6:56 AM 42.8 °F 37.5 °F 37.4 °F 81% 29.51 in 10.0 mi SSW 9.2 mph 17.3 mph N/A   Overcast
7:16 AM 42.8 °F 37.5 °F 35.6 °F 76% 29.50 in 10.0 mi SSW 9.2 mph - N/A   Overcast
7:36 AM 42.8 °F 38.6 °F 37.4 °F 81% 29.49 in 10.0 mi SSW 6.9 mph - N/A   Overcast
7:56 AM 42.8 °F 41.1 °F 37.4 °F 81% 29.48 in 10.0 mi SSW 3.5 mph - N/A   Overcast
8:16 AM 42.8 °F 41.1 °F 37.4 °F 81% 29.46 in 10.0 mi WSW 3.5 mph - N/A   Overcast
8:36 AM 42.8 °F 41.1 °F 37.4 °F 81% 29.46 in 10.0 mi WSW 3.5 mph - N/A   Overcast
8:56 AM 41.0 °F - 39.2 °F 93% 29.44 in 10.0 mi Calm Calm - N/A   Overcast
9:16 AM 42.8 °F - 39.2 °F 87% 29.44 in 10.0 mi Calm Calm - N/A   Overcast
9:36 AM 42.8 °F 41.1 °F 39.2 °F 87% 29.43 in 10.0 mi WSW 3.5 mph - N/A   Overcast
9:56 AM 42.8 °F 38.6 °F 39.2 °F 87% 29.44 in 10.0 mi SW 6.9 mph - N/A   Overcast
10:16 AM 42.8 °F 38.0 °F 39.2 °F 87% 29.45 in 10.0 mi SSW 8.1 mph - N/A   Overcast
10:36 AM 42.8 °F 40.1 °F 39.2 °F 87% 29.45 in 10.0 mi SW 4.6 mph - N/A   Overcast
10:56 AM 42.8 °F 38.6 °F 39.2 °F 87% 29.45 in 10.0 mi SW 6.9 mph - N/A   Overcast
11:16 AM 42.8 °F 40.1 °F 39.2 °F 87% 29.43 in 10.0 mi SW 4.6 mph - N/A   Overcast
11:36 AM 42.8 °F 38.6 °F 39.2 °F 87% 29.42 in 10.0 mi SW 6.9 mph - N/A   Overcast
11:56 AM 44.6 °F 40.7 °F 39.2 °F 81% 29.43 in 10.0 mi South 6.9 mph - N/A   Overcast
12:16 PM 44.6 °F 40.2 °F 39.2 °F 81% 29.43 in 10.0 mi South 8.1 mph - N/A   Overcast
12:36 PM 42.8 °F 38.6 °F 39.2 °F 87% 29.43 in 9.0 mi South 6.9 mph - N/A   Overcast
12:56 PM 42.8 °F 40.1 °F 39.2 °F 87% 29.42 in 10.0 mi South 4.6 mph - N/A   Overcast
1:16 PM 42.8 °F - 39.2 °F 87% 29.43 in 8.0 mi Calm Calm - N/A   Overcast
1:36 PM 42.8 °F 40.1 °F 41.0 °F 93% 29.42 in 10.0 mi SW 4.6 mph - N/A   Overcast
1:56 PM 42.8 °F 40.1 °F 41.0 °F 93% 29.42 in 10.0 mi SW 4.6 mph - N/A   Overcast
2:16 PM 42.8 °F 40.1 °F 42.8 °F 100% 29.41 in 10.0 mi WSW 4.6 mph - N/A   Overcast
2:36 PM 44.6 °F 42.2 °F 42.8 °F 93% 29.41 in 9.0 mi West 4.6 mph - N/A   Overcast
2:56 PM 44.6 °F 43.1 °F 42.8 °F 93% 29.41 in 9.0 mi South 3.5 mph - N/A   Overcast
3:16 PM 44.6 °F - 44.6 °F 100% 29.41 in 10.0 mi Calm Calm - N/A   Overcast
3:36 PM 44.6 °F 43.1 °F 44.6 °F 100% 29.42 in 10.0 mi South 3.5 mph - N/A   Overcast
3:56 PM 44.6 °F 42.2 °F 44.6 °F 100% 29.42 in 10.0 mi South 4.6 mph - N/A   Overcast
4:16 PM 44.6 °F 42.2 °F 44.6 °F 100% 29.43 in 10.0 mi SSE 4.6 mph - N/A   Overcast
4:36 PM 44.6 °F 42.2 °F 42.8 °F 93% 29.44 in 10.0 mi SSE 4.6 mph - N/A   Overcast
4:56 PM 42.8 °F 40.1 °F 42.8 °F 100% 29.45 in 10.0 mi SSE 4.6 mph - N/A   Overcast
5:16 PM 42.8 °F 38.6 °F 41.0 °F 93% 29.46 in 10.0 mi SE 6.9 mph - N/A   Overcast
5:36 PM 42.8 °F 40.1 °F 41.0 °F 93% 29.47 in 10.0 mi SE 4.6 mph - N/A   Overcast
5:56 PM 42.8 °F 38.0 °F 39.2 °F 87% 29.47 in 10.0 mi SSE 8.1 mph - N/A   Overcast
6:16 PM 42.8 °F 37.5 °F 39.2 °F 87% 29.48 in 10.0 mi SSE 9.2 mph 16.1 mph N/A   Overcast
6:36 PM 42.8 °F 38.0 °F 39.2 °F 87% 29.49 in 10.0 mi SSE 8.1 mph - N/A   Overcast
6:56 PM 41.0 °F 37.1 °F 39.2 °F 93% 29.50 in 10.0 mi SE 5.8 mph - N/A   Overcast
7:16 PM 41.0 °F 39.0 °F 39.2 °F 93% 29.51 in 10.0 mi SSE 3.5 mph - N/A   Mostly Cloudy
7:36 PM 41.0 °F 39.0 °F 37.4 °F 87% 29.51 in 10.0 mi South 3.5 mph - N/A   Overcast
7:56 PM 39.2 °F 35.0 °F 37.4 °F 93% 29.52 in 10.0 mi South 5.8 mph - N/A   Mostly Cloudy
8:16 PM 39.2 °F 37.0 °F 37.4 °F 93% 29.52 in 10.0 mi South 3.5 mph - N/A   Scattered Clouds
8:36 PM 39.2 °F - 37.4 °F 93% 29.53 in 10.0 mi Calm Calm - N/A   Partly Cloudy
8:56 PM 39.2 °F - 37.4 °F 93% 29.54 in 10.0 mi Calm Calm - N/A   Scattered Clouds
9:16 PM 39.2 °F 35.9 °F 37.4 °F 93% 29.54 in 10.0 mi West 4.6 mph - N/A   Overcast
9:36 PM 39.2 °F 35.9 °F 37.4 °F 93% 29.55 in 10.0 mi WSW 4.6 mph - N/A   Overcast
9:56 PM 39.2 °F - 37.4 °F 93% 29.55 in 10.0 mi Calm Calm - N/A   Overcast
10:16 PM 39.2 °F 37.0 °F 37.4 °F 93% 29.55 in 10.0 mi West 3.5 mph - N/A   Overcast
10:36 PM 39.2 °F 37.0 °F 37.4 °F 93% 29.56 in 10.0 mi SSE 3.5 mph - N/A   Overcast
10:56 PM 39.2 °F - 37.4 °F 93% 29.56 in 10.0 mi Calm Calm - N/A   Overcast
11:16 PM 39.2 °F - 37.4 °F 93% 29.56 in 10.0 mi Calm Calm - N/A   Overcast
11:36 PM 37.4 °F - 37.4 °F 100% 29.56 in 10.0 mi Calm Calm - N/A   Overcast
11:56 PM 37.4 °F - 37.4 °F 100% 29.57 in 10.0 mi Calm Calm - N/A   Overcast